Weather History for Albert Lea, MN

Change the Weather History Date:

Thursday, September 20, 2012

  Actual Average Record
Temperature  
Mean Temperature 52 °F -  
Max Temperature 62 °F 67 °F 87 °F (2005)
Min Temperature 42 °F 46 °F 33 °F (2006)
Degree Days  
Heating Degree Days 13    
Growing Degree Days 2 (Base 50)    
Moisture  
Dew Point 34 °F    
Average Humidity 52    
Maximum Humidity 82    
Minimum Humidity 27    
Precipitation  
Precipitation 0.00 in - - ()
Sea Level Pressure  
Sea Level Pressure 29.92 in    
Wind  
Wind Speed 4 mph (West)    
Max Wind Speed 13 mph    
Max Gust Speed 23 mph    
Visibility 10 miles    
Events      
Averages and records for this station are not official NWS values.
T = Trace of Precipitation, MM = Missing Value Source: NWS Daily Summary

Daily Weather History Graph

Daily Weather History Graph

Search for Another Location

Airport:

Trip Planner

Search our weather history database for the weather conditions in past years. The results will help you decide how hot, cold, wet, or windy it might be!

Date:

Astronomy

Sep. 20, 2012 Rise Set
Actual Time 6:59 AM CDT 7:13 PM CDT
Civil Twilight 6:30 AM CDT 7:42 PM CDT
Nautical Twilight 5:56 AM CDT 8:15 PM CDT
Astronomical Twilight 5:22 AM CDT 8:50 PM CDT
Moon 12:29 PM CDT (9/20) 10:04 PM CDT (9/20)
Length of Visible Light 13h 11m
Length of Day
12h 14m
Waxing Crescent, 27% of the Moon is Illuminated
Sep 20
Waxing Crescent
Sep 22
First Quarter
Sep 29
Full
Oct 8
Last Quarter
Oct 15
New

Hourly Weather History & Observations

Time (CDT) Temp. Windchill Dew Point Humidity Pressure Visibility Wind Dir Wind Speed Gust Speed Precip Events Conditions
12:14 AM 48.2 °F - 37.4 °F 66% 29.90 in 10.0 mi Calm Calm - N/A   Clear
12:33 AM 48.2 °F - 35.6 °F 62% 29.90 in 10.0 mi West 3.5 mph - N/A   Clear
12:53 AM 48.2 °F - 35.6 °F 62% 29.89 in 10.0 mi Calm Calm - N/A   Clear
1:14 AM 46.4 °F - 35.6 °F 66% 29.89 in 10.0 mi Calm Calm - N/A   Clear
1:33 AM 46.4 °F - 35.6 °F 66% 29.89 in 10.0 mi Calm Calm - N/A   Clear
1:53 AM 46.4 °F 45.2 °F 35.6 °F 66% 29.90 in 10.0 mi West 3.5 mph - N/A   Clear
2:14 AM 46.4 °F 44.3 °F 35.6 °F 66% 29.90 in 10.0 mi West 4.6 mph - N/A   Clear
2:33 AM 46.4 °F 44.3 °F 33.8 °F 62% 29.90 in 10.0 mi West 4.6 mph - N/A   Clear
2:53 AM 46.4 °F - 33.8 °F 62% 29.90 in 10.0 mi Calm Calm - N/A   Clear
3:14 AM 46.4 °F 44.3 °F 33.8 °F 62% 29.89 in 10.0 mi West 4.6 mph - N/A   Clear
3:33 AM 46.4 °F 44.3 °F 33.8 °F 62% 29.89 in 10.0 mi West 4.6 mph - N/A   Clear
3:53 AM 46.4 °F 44.3 °F 33.8 °F 62% 29.89 in 10.0 mi West 4.6 mph - N/A   Clear
4:14 AM 44.6 °F 42.2 °F 33.8 °F 66% 29.89 in 10.0 mi West 4.6 mph - N/A   Clear
4:33 AM 44.6 °F 41.4 °F 33.8 °F 66% 29.90 in 10.0 mi West 5.8 mph - N/A   Clear
4:53 AM 44.6 °F 40.7 °F 33.8 °F 66% 29.91 in 10.0 mi West 6.9 mph - N/A   Clear
5:14 AM 44.6 °F 41.4 °F 33.8 °F 66% 29.91 in 10.0 mi West 5.8 mph - N/A   Clear
5:33 AM 44.6 °F 42.2 °F 33.8 °F 66% 29.92 in 10.0 mi West 4.6 mph - N/A   Clear
5:53 AM 42.8 °F 40.1 °F 33.8 °F 70% 29.92 in 10.0 mi West 4.6 mph - N/A   Clear
6:14 AM 42.8 °F 41.1 °F 33.8 °F 70% 29.92 in 10.0 mi West 3.5 mph - N/A   Clear
6:33 AM 42.8 °F 40.1 °F 33.8 °F 70% 29.93 in 10.0 mi WNW 4.6 mph - N/A   Clear
6:53 AM 44.6 °F 41.4 °F 33.8 °F 66% 29.93 in 10.0 mi WNW 5.8 mph - N/A   Clear
7:14 AM 44.6 °F 43.1 °F 33.8 °F 66% 29.94 in 10.0 mi West 3.5 mph - N/A   Clear
7:33 AM 44.6 °F 42.2 °F 35.6 °F 71% 29.94 in 10.0 mi West 4.6 mph - N/A   Clear
7:53 AM 44.6 °F 43.1 °F 35.6 °F 71% 29.94 in 10.0 mi West 3.5 mph - N/A   Clear
8:14 AM 46.4 °F 42.9 °F 35.6 °F 66% 29.95 in 7.0 mi West 6.9 mph - N/A   Clear
8:33 AM 46.4 °F 44.3 °F 35.6 °F 66% 29.95 in 7.0 mi West 4.6 mph - N/A   Clear
8:53 AM 50.0 °F - 35.6 °F 58% 29.95 in 10.0 mi West 5.8 mph - N/A   Clear
9:14 AM 51.8 °F - 35.6 °F 54% 29.95 in 10.0 mi WNW 5.8 mph - N/A   Clear
9:33 AM 53.6 °F - 35.6 °F 51% 29.96 in 10.0 mi WNW 5.8 mph - N/A   Clear
9:53 AM 55.4 °F - 35.6 °F 47% 29.95 in 10.0 mi WNW 9.2 mph 17.3 mph N/A   Scattered Clouds
10:14 AM 55.4 °F - 35.6 °F 47% 29.95 in 10.0 mi NW 9.2 mph - N/A   Clear
10:54 AM 57.2 °F - 33.8 °F 41% 29.95 in 10.0 mi WNW 6.9 mph - N/A   Clear
11:13 AM 57.2 °F - 32.0 °F 38% 29.96 in 10.0 mi NW 11.5 mph 18.4 mph N/A   Clear
11:34 AM 60.8 °F - 32.0 °F 34% 29.95 in 2.5 mi WNW 8.1 mph 17.3 mph N/A   Haze
11:53 AM 60.8 °F - 30.2 °F 31% 29.95 in 10.0 mi WNW 10.4 mph 17.3 mph N/A   Clear
12:14 PM 60.8 °F - 30.2 °F 31% 29.95 in 10.0 mi NW 8.1 mph 17.3 mph N/A   Clear
12:33 PM 62.6 °F - 30.2 °F 30% 29.95 in 10.0 mi WNW 10.4 mph 19.6 mph N/A   Scattered Clouds
12:54 PM 62.6 °F - 30.2 °F 30% 29.94 in 10.0 mi WNW 12.7 mph - N/A   Scattered Clouds
1:13 PM 62.6 °F - 30.2 °F 30% 29.94 in 10.0 mi West 10.4 mph 19.6 mph N/A   Scattered Clouds
1:33 PM 62.6 °F - 30.2 °F 30% 29.94 in 10.0 mi NW 9.2 mph 21.9 mph N/A   Clear
1:54 PM 62.6 °F - 30.2 °F 30% 29.94 in 10.0 mi NW 10.4 mph 19.6 mph N/A   Scattered Clouds
2:13 PM 62.6 °F - 28.4 °F 27% 29.94 in 10.0 mi WNW 10.4 mph 18.4 mph N/A   Scattered Clouds
2:33 PM 62.6 °F - 28.4 °F 27% 29.93 in 10.0 mi West 9.2 mph 19.6 mph N/A   Mostly Cloudy
2:54 PM 62.6 °F - 28.4 °F 27% 29.93 in 10.0 mi NW 10.4 mph 23.0 mph N/A   Scattered Clouds
3:13 PM 62.6 °F - 28.4 °F 27% 29.93 in 10.0 mi WNW 12.7 mph - N/A   Scattered Clouds
3:33 PM 62.6 °F - 28.4 °F 27% 29.92 in 10.0 mi WNW 12.7 mph 19.6 mph N/A   Clear
3:54 PM 62.6 °F - 28.4 °F 27% 29.92 in 10.0 mi West 9.2 mph 17.3 mph N/A   Clear
4:13 PM 62.6 °F - 28.4 °F 27% 29.92 in 10.0 mi West 9.2 mph 16.1 mph N/A   Scattered Clouds
4:33 PM 62.6 °F - 30.2 °F 30% 29.92 in 10.0 mi West 9.2 mph - N/A   Scattered Clouds
4:54 PM 62.6 °F - 28.4 °F 27% 29.91 in 10.0 mi WNW 8.1 mph 16.1 mph N/A   Clear
5:13 PM 62.6 °F - 28.4 °F 27% 29.91 in 10.0 mi WNW 6.9 mph 16.1 mph N/A   Clear
5:33 PM 62.6 °F - 28.4 °F 27% 29.91 in 10.0 mi WNW 3.5 mph - N/A   Clear
5:54 PM 60.8 °F - 28.4 °F 29% 29.91 in 10.0 mi West 4.6 mph - N/A   Clear
6:13 PM 60.8 °F - 30.2 °F 31% 29.92 in 10.0 mi NW 3.5 mph - N/A   Clear
6:33 PM 60.8 °F - 30.2 °F 31% 29.92 in 10.0 mi WNW 3.5 mph - N/A   Clear
6:53 PM 57.2 °F - 30.2 °F 36% 29.92 in 10.0 mi Calm Calm - N/A   Clear
7:14 PM 55.4 °F - 30.2 °F 38% 29.92 in 10.0 mi Calm Calm - N/A   Clear
7:33 PM 55.4 °F - 33.8 °F 44% 29.92 in 10.0 mi Calm Calm - N/A   Clear
7:53 PM 53.6 °F - 41.0 °F 62% 29.92 in 10.0 mi Calm Calm - N/A   Clear
8:13 PM 51.8 °F - 42.8 °F 71% 29.92 in 10.0 mi SW 3.5 mph - N/A   Clear
8:33 PM 48.2 °F - 39.2 °F 71% 29.92 in 10.0 mi SW 3.5 mph - N/A   Clear
8:54 PM 48.2 °F - 39.2 °F 71% 29.92 in 10.0 mi Calm Calm - N/A   Clear
9:13 PM 48.2 °F - 41.0 °F 76% 29.92 in 10.0 mi Calm Calm - N/A   Clear
9:33 PM 48.2 °F - 42.8 °F 82% 29.93 in 10.0 mi SW 3.5 mph - N/A   Clear
9:54 PM 46.4 °F - 39.2 °F 76% 29.92 in 10.0 mi Calm Calm - N/A   Scattered Clouds
10:13 PM 48.2 °F - 41.0 °F 76% 29.92 in 10.0 mi SSW 3.5 mph - N/A   Mostly Cloudy
10:33 PM 50.0 °F - 37.4 °F 62% 29.91 in 10.0 mi SW 4.6 mph - N/A   Mostly Cloudy
10:54 PM 50.0 °F - 37.4 °F 62% 29.92 in 10.0 mi SW 4.6 mph - N/A   Scattered Clouds
11:13 PM 51.8 °F - 35.6 °F 54% 29.91 in 10.0 mi SW 3.5 mph - N/A   Overcast
11:33 PM 51.8 °F - 35.6 °F 54% 29.91 in 10.0 mi SW 5.8 mph - N/A   Mostly Cloudy
11:54 PM 51.8 °F - 33.8 °F 50% 29.90 in 10.0 mi SW 3.5 mph - N/A   Mostly Cloudy